FW6766 Weather Reports


Display with metric or nautical units.
time (UTC)temp
F
wind
direction
speed
MPH
gust
MPH
rain 1hr
in
rain 24hr
in
rain mn
in
humidity
%
barometer
mb
20210927183015 80 68 1.0 3.0 0.00 0.00 0.00 58 1020.6
20210927182016 79 0 1.0 4.0 0.00 0.00 0.00 57 1020.7
20210927181015 81 248 2.0 4.0 0.00 0.00 0.00 56 1020.9
20210927180015 80 23 1.0 3.0 0.00 0.00 0.00 59 1021.1
20210927175016 79 0 2.0 4.0 0.00 0.00 0.00 57 1021.1
20210927174015 80 225 2.0 5.0 0.00 0.00 0.00 56 1021.5
20210927173015 80 225 2.0 3.0 0.00 0.00 0.00 57 1021.7
20210927172016 79 225 2.0 4.0 0.00 0.00 0.00 60 1021.9
20210927171015 78 225 2.0 5.0 0.00 0.00 0.00 64 1021.9
20210927170015 78 0 1.0 4.0 0.00 0.00 0.00 64 1021.9
20210927165015 78 158 2.0 4.0 0.00 0.00 0.00 61 1022.1
20210927164016 78 0 1.0 5.0 0.00 0.00 0.00 66 1022.0
20210927163015 77 68 1.0 4.0 0.00 0.00 0.00 66 1022.1
20210927162015 77 225 1.0 4.0 0.00 0.00 0.00 66 1022.2
20210927161016 76 180 1.0 5.0 0.00 0.00 0.00 66 1022.2
20210927160016 76 248 1.0 4.0 0.00 0.00 0.00 65 1022.3
20210927155015 75 203 1.0 3.0 0.00 0.00 0.00 69 1022.3
20210927154016 75 203 2.0 5.0 0.00 0.00 0.00 66 1022.4
20210927153016 74 0.0 0.0 0.00 0.00 0.00 72 1022.4
20210927152016 74 0.0 0.0 0.00 0.00 0.00 73 1022.4
20210927151015 72 0.0 0.0 0.00 0.00 0.00 76 1022.5
20210927150016 71 0.0 0.0 0.00 0.00 0.00 77 1022.4
20210927145015 70 0.0 0.0 0.00 0.00 0.00 80 1022.4
20210927144015 68 0.0 0.0 0.00 0.00 0.00 82 1022.4
20210927143016 66 0.0 0.0 0.00 0.00 0.00 86 1022.3
20210927142015 65 203 1.0 3.0 0.00 0.00 0.00 90 1022.3
20210927141015 63 0.0 2.0 0.00 0.00 0.00 93 1022.3
20210927140016 63 0.0 0.0 0.00 0.00 0.00 97 1022.3
20210927135016 62 0.0 0.0 0.00 0.00 0.00 99 1022.4
20210927134016 61 0.0 0.0 0.00 0.00 0.00 99 1022.2
20210927133015 60 0.0 0.0 0.00 0.00 0.00 99 1022.2
20210927132015 59 0.0 0.0 0.00 0.00 0.00 99 1022.1
20210927131015 58 0.0 0.0 0.00 0.00 0.00 99 1022.0
20210927130016 58 0.0 0.0 0.00 0.00 0.00 99 1022.1
20210927125015 57 0.0 0.0 0.00 0.00 0.00 99 1022.0
20210927124015 57 0.0 0.0 0.00 0.00 0.00 99 1021.9
20210927123016 56 0.0 0.0 0.00 0.00 0.00 99 1021.7
20210927122015 55 0.0 0.0 0.00 0.00 0.00 99 1021.7
20210927121015 55 0.0 0.0 0.00 0.00 0.00 99 1021.7
20210927120016 54 0.0 0.0 0.00 0.00 0.00 98 1021.5
20210927115017 54 0.0 0.0 0.00 0.00 0.00 98 1021.4
20210927114017 54 0.0 0.0 0.00 0.00 0.00 98 1021.5
20210927113017 54 0.0 0.0 0.00 0.00 0.00 98 1021.3
20210927112017 54 0.0 0.0 0.00 0.00 0.00 98 1021.2
20210927111017 55 0.0 0.0 0.00 0.00 0.00 98 1021.2
20210927110017 55 0.0 0.0 0.00 0.00 0.00 98 1021.1
20210927105017 55 0.0 0.0 0.00 0.00 0.00 98 1021.0
20210927104017 55 0.0 0.0 0.00 0.00 0.00 98 1020.9
20210927103017 55 0.0 0.0 0.00 0.00 0.00 98 1020.7
20210927102017 55 0.0 0.0 0.00 0.00 0.00 98 1020.8
20210927101017 55 0.0 0.0 0.00 0.00 0.00 98 1020.9
20210927100017 55 0.0 0.0 0.00 0.00 0.00 98 1020.7
20210927095017 55 0.0 0.0 0.00 0.00 0.00 98 1020.8
20210927094016 55 0.0 0.0 0.00 0.00 0.00 98 1020.8
20210927093017 55 0.0 0.0 0.00 0.00 0.00 98 1020.8
20210927092017 55 0.0 0.0 0.00 0.00 0.00 98 1020.8
20210927091017 56 0.0 0.0 0.00 0.00 0.00 98 1020.9
20210927090017 56 0.0 0.0 0.00 0.00 0.00 98 1020.9
20210927085017 56 0.0 0.0 0.00 0.00 0.00 97 1020.9
20210927084017 56 0.0 0.0 0.00 0.00 0.00 98 1020.8
20210927083017 56 0.0 0.0 0.00 0.00 0.00 98 1020.8
20210927082017 56 0.0 0.0 0.00 0.00 0.00 98 1020.7
20210927081016 56 0.0 0.0 0.00 0.00 0.00 98 1020.7
20210927080017 56 0.0 0.0 0.00 0.00 0.00 98 1020.7
20210927075016 56 0.0 0.0 0.00 0.00 0.00 97 1020.8
20210927074017 56 0.0 0.0 0.00 0.00 0.00 97 1020.9
20210927073017 57 0.0 0.0 0.00 0.00 0.00 97 1021.0
20210927072017 57 0.0 0.0 0.00 0.00 0.00 97 1021.0
20210927071017 57 0.0 0.0 0.00 0.00 0.00 97 1021.1
20210927070016 57 0.0 0.0 0.00 0.00 0.00 97 1021.1
20210927065016 57 0.0 0.0 0.00 0.00 0.00 98 1021.0
20210927064016 57 0.0 0.0 0.00 0.00 0.00 97 1021.1
20210927063017 57 0.0 0.0 0.00 0.00 0.00 97 1021.1
20210927062017 57 0.0 0.0 0.00 0.00 0.00 97 1021.1
20210927061017 58 0.0 0.0 0.00 0.00 0.00 97 1021.1
20210927060016 58 0.0 0.0 0.00 0.00 0.00 97 1021.1
20210927055017 58 0.0 0.0 0.00 0.00 0.00 97 1021.0
20210927054016 58 0.0 0.0 0.00 0.00 0.00 97 1021.1
20210927053017 58 0.0 0.0 0.00 0.00 0.00 97 1021.1
20210927052016 58 0.0 0.0 0.00 0.00 0.00 97 1021.2
20210927051016 59 0.0 0.0 0.00 0.00 0.00 97 1021.1
20210927050016 59 0.0 0.0 0.00 0.00 0.00 97 1021.1
20210927045016 59 0.0 0.0 0.00 0.00 0.00 97 1021.1
20210927044017 59 0.0 0.0 0.00 0.00 0.00 96 1021.1
20210927043016 59 0.0 0.0 0.00 0.00 0.00 96 1021.1
20210927042016 59 0.0 0.0 0.00 0.00 0.00 96 1021.2
20210927041016 59 0.0 0.0 0.00 0.00 0.00 96 1021.0
20210927040017 60 0.0 0.0 0.00 0.00 0.00 96 1021.2
20210927035016 60 0.0 0.0 0.00 0.00 0.00 96 1021.0
20210927034017 60 0.0 0.0 0.00 0.00 0.00 96 1021.0
20210927033016 60 0.0 0.0 0.00 0.00 0.00 96 1020.9
20210927032016 61 0.0 0.0 0.00 0.00 0.00 96 1020.9
20210927031016 61 0.0 0.0 0.00 0.00 0.00 96 1020.8
20210927030018 61 0.0 0.0 0.00 0.00 0.00 96 1020.8
20210927025017 61 0.0 0.0 0.00 0.00 0.00 96 1020.7
20210927024016 61 0.0 0.0 0.00 0.00 0.00 96 1020.7
20210927023017 61 0.0 0.0 0.00 0.00 0.00 95 1020.6
20210927022016 61 0.0 0.0 0.00 0.00 0.00 95 1020.6
20210927021016 62 0.0 0.0 0.00 0.00 0.00 94 1020.7
20210927020017 62 0.0 0.0 0.00 0.00 0.00 94 1020.5
20210927015016 62 0.0 0.0 0.00 0.00 0.00 94 1020.5
20210927014016 63 0.0 0.0 0.00 0.00 0.00 93 1020.2
20210927013016 63 0.0 0.0 0.00 0.00 0.00 93 1020.1
20210927012017 63 0.0 0.0 0.00 0.00 0.00 92 1020.0
20210927011016 63 0.0 0.0 0.00 0.00 0.00 92 1020.0
20210927010016 64 0.0 0.0 0.00 0.00 0.00 92 1019.9
20210927005017 64 0.0 0.0 0.00 0.00 0.00 90 1019.7
20210927004016 64 0.0 0.0 0.00 0.00 0.00 89 1019.7
20210927003016 65 0.0 0.0 0.00 0.00 0.00 88 1019.6
20210927002016 65 0.0 0.0 0.00 0.00 0.00 87 1019.6
20210927001016 66 0.0 0.0 0.00 0.00 0.00 86 1019.6
20210927000016 66 0.0 0.0 0.00 0.00 0.00 85 1019.6
20210926235016 67 0.0 0.0 0.00 0.00 0.00 84 1019.6
20210926234016 68 0.0 0.0 0.00 0.00 0.00 82 1019.6
20210926233016 68 0.0 0.0 0.00 0.00 0.00 81 1019.5
20210926232016 69 0.0 0.0 0.00 0.00 0.00 80 1019.5
20210926231016 69 0.0 0.0 0.00 0.00 0.00 79 1019.6
20210926230017 70 0.0 0.0 0.00 0.00 0.00 77 1019.6
20210926225016 71 0.0 0.0 0.00 0.00 0.00 76 1019.5
20210926224016 72 0.0 0.0 0.00 0.00 0.00 75 1019.7
20210926223016 72 0.0 0.0 0.00 0.00 0.00 71 1019.7
20210926222016 73 0.0 0.0 0.00 0.00 0.00 70 1019.7
20210926221016 74 0.0 0.0 0.00 0.00 0.00 70 1019.7
20210926220016 74 0.0 4.0 0.00 0.00 0.00 68 1019.7
20210926215015 75 0.0 0.0 0.00 0.00 0.00 66 1019.7
20210926214016 75 180 1.0 3.0 0.00 0.00 0.00 64 1019.8
20210926213016 76 113 1.0 3.0 0.00 0.00 0.00 63 1019.9
20210926212017 76 0 1.0 3.0 0.00 0.00 0.00 62 1019.9
20210926211015 76 203 2.0 5.0 0.00 0.00 0.00 60 1019.9
20210926210016 76 0 2.0 7.0 0.00 0.00 0.00 59 1019.9
20210926205015 76 0 2.0 8.0 0.00 0.00 0.00 58 1019.9
20210926204015 76 23 2.0 6.0 0.00 0.00 0.00 58 1020.0
20210926203015 76 203 2.0 6.0 0.00 0.00 0.00 61 1020.1
20210926202016 76 225 2.0 4.0 0.00 0.00 0.00 59 1020.3
20210926201015 77 225 1.0 4.0 0.00 0.00 0.00 57 1020.3
20210926200015 77 135 1.0 4.0 0.00 0.00 0.00 60 1020.5
20210926195016 77 0 3.0 7.0 0.00 0.00 0.00 60 1020.5
20210926194016 77 0 3.0 10.0 0.00 0.00 0.00 60 1020.7
20210926193016 77 23 2.0 5.0 0.00 0.00 0.00 59 1020.6
20210926192016 77 23 1.0 4.0 0.00 0.00 0.00 60 1020.8
20210926191016 79 225 2.0 4.0 0.00 0.00 0.00 56 1020.9
20210926190016 77 225 2.0 5.0 0.00 0.00 0.00 62 1020.9
20210926185016 76 180 2.0 6.0 0.00 0.00 0.00 59 1021.0
20210926184015 77 203 2.0 8.0 0.00 0.00 0.00 59 1021.2